Change the Weather History Date:

Saturday, January 12, 2013

  Actual Average Record
Temperature  
Mean Temperature 44 °F -  
Max Temperature 55 °F 67 °F 85 °F (2009)
Min Temperature 32 °F 49 °F 32 °F (2013)
Degree Days  
Heating Degree Days 22    
Moisture  
Dew Point 28 °F    
Average Humidity 54    
Maximum Humidity 82    
Minimum Humidity 27    
Precipitation  
Precipitation 0.00 in - - ()
Sea Level Pressure  
Sea Level Pressure 30.12 in    
Wind  
Wind Speed 5 mph (NE)    
Max Wind Speed 13 mph    
Max Gust Speed -    
Visibility 10 miles    
Events      
Averages and records for this station are not official NWS values.
T = Trace of Precipitation, MM = Missing Value Source: NWS Daily Summary

Daily Weather History Graph

Daily Weather History Graph

Search for Another Location

Airport or City:

Trip Planner

Search our weather history database for the weather conditions in past years. The results will help you decide how hot, cold, wet, or windy it might be!

Date:

Astronomy

Jan. 12, 2013 Rise Set
Actual Time 6:57 AM PST 5:04 PM PST
Civil Twilight 6:30 AM PST 5:31 PM PST
Nautical Twilight 5:59 AM PST 6:02 PM PST
Astronomical Twilight 5:29 AM PST 6:32 PM PST
Moon 7:24 AM PST (1/12) 6:32 PM PST (1/12)
Length of Visible Light 11h 01m
Length of Day
10h 06m
New Moon, 2% of the Moon is Illuminated
Jan 12
New Moon
Jan 18
First Quarter
Jan 26
Full
Feb 3
Last Quarter
Feb 9
New

Hourly Weather History & Observations

Time (PST) Temp. Windchill Dew Point Humidity Pressure Visibility Wind Dir Wind Speed Gust Speed Precip Events Conditions
12:58 AM 44.4 °F 42.9 °F 22.6 °F 42% 30.09 in 10.0 mi Variable 3.5 mph - N/A   Scattered Clouds
1:58 AM 45.1 °F 42.0 °F 23.4 °F 42% 30.10 in 10.0 mi North 5.8 mph - N/A   Overcast
2:58 AM 44.8 °F - 22.6 °F 42% 30.09 in 10.0 mi North 2.3 mph - N/A   Overcast
3:58 AM 40.3 °F 36.3 °F 24.4 °F 53% 30.09 in 10.0 mi NNE 5.8 mph - N/A   Clear
4:58 AM 36.7 °F 32.9 °F 24.1 °F 60% 30.09 in 10.0 mi ENE 4.6 mph - N/A   Clear
5:58 AM 35.6 °F 32.8 °F 23.5 °F 62% 30.11 in 10.0 mi NE 3.5 mph - N/A   Clear
6:58 AM 32.7 °F - 24.3 °F 71% 30.14 in 10.0 mi North 2.3 mph - N/A   Clear
7:58 AM 37.6 °F 34.0 °F 26.1 °F 63% 30.16 in 10.0 mi NNW 4.6 mph - N/A   Clear
8:58 AM 43.7 °F 41.1 °F 26.4 °F 51% 30.17 in 10.0 mi North 4.6 mph - N/A   Clear
9:58 AM 49.6 °F - 22.3 °F 34% 30.18 in 10.0 mi NE 4.6 mph - N/A   Partly Cloudy
10:58 AM 54.3 °F - 20.7 °F 27% 30.16 in 10.0 mi East 12.7 mph - N/A   Partly Cloudy
11:58 AM 55.2 °F - 22.5 °F 28% 30.13 in 10.0 mi SSW 5.8 mph - N/A   Partly Cloudy
12:58 PM 54.3 °F - 29.7 °F 39% 30.12 in 10.0 mi South 9.2 mph - N/A   Partly Cloudy
1:58 PM 54.7 °F - 32.7 °F 43% 30.11 in 10.0 mi South 8.1 mph - N/A   Partly Cloudy
2:58 PM 54.1 °F - 30.7 °F 41% 30.10 in 10.0 mi SSW 9.2 mph - N/A   Partly Cloudy
3:58 PM 52.9 °F - 30.4 °F 42% 30.10 in 10.0 mi SSW 9.2 mph - N/A   Clear
4:58 PM 49.1 °F - 33.6 °F 55% 30.10 in 10.0 mi SW 9.2 mph - N/A   Clear
5:58 PM 45.5 °F - 32.7 °F 61% 30.11 in 10.0 mi WSW 2.3 mph - N/A   Clear
6:58 PM 42.6 °F - 32.9 °F 68% 30.12 in 10.0 mi Calm Calm - N/A   Clear
7:58 PM 43.2 °F 41.5 °F 33.8 °F 70% 30.12 in 10.0 mi East 3.5 mph - N/A   Clear
8:58 PM 40.6 °F 38.6 °F 33.8 °F 77% 30.12 in 10.0 mi East 3.5 mph - N/A   Clear
9:58 PM 41.9 °F 40.0 °F 32.7 °F 70% 30.12 in 10.0 mi NE 3.5 mph - N/A   Clear
10:58 PM 36.3 °F - 31.3 °F 82% 30.13 in 10.0 mi Calm Calm - N/A   Clear
11:58 PM 38.7 °F - 30.9 °F 74% 30.12 in 10.0 mi NE 2.3 mph - N/A   Clear